Hourly Weather Cedar Rapids

Today, 15 June, Tuesday

Time Temperature Precipitation Wind Pressure Humidity
00:00 +19°C° 0 mm 1 mps 741 mmHg 76%
01:00 +19°C° 0 mm 1 mps 742 mmHg 76%
02:00 +18°C° 0 mm 1 mps 742 mmHg 75%
03:00 +18°C° 0 mm 1 mps 742 mmHg 75%
04:00 +18°C° 0 mm 1 mps 742 mmHg 75%
05:00 +18°C° 0 mm 2 mps 742 mmHg 75%
06:00 +18°C° 0 mm 2 mps 742 mmHg 76%
07:00 +20°C° 0 mm 2 mps 743 mmHg 70%
08:00 +23°C° 0 mm 2 mps 743 mmHg 65%
09:00 +25°C° 0 mm 3 mps 743 mmHg 60%
10:00 +26°C° 0 mm 3 mps 743 mmHg 57%
11:00 +27°C° 0 mm 3 mps 743 mmHg 54%
12:00 +28°C° 0 mm 3 mps 743 mmHg 51%
13:00 +28°C° 0 mm 3 mps 743 mmHg 50%
14:00 +28°C° 0 mm 3 mps 742 mmHg 50%
15:00 +28°C° 0 mm 3 mps 742 mmHg 49%
16:00 +27°C° 0 mm 4 mps 742 mmHg 55%
17:00 +26°C° 0 mm 4 mps 742 mmHg 61%
18:00 +25°C° 0 mm 4 mps 742 mmHg 68%
19:00 +22°C° 0 mm 3 mps 742 mmHg 72%
20:00 +21°C° 0 mm 3 mps 742 mmHg 77%
21:00 +19°C° 0 mm 3 mps 743 mmHg 82%
22:00 +18°C° 0 mm 3 mps 743 mmHg 83%
23:00 +17°C° 0 mm 2 mps 743 mmHg 85%

Tomorrow, 16 June, Wednesday

Time Temperature Precipitation Wind Pressure Humidity
00:00 +17°C° 0 mm 2 mps 743 mmHg 87%
01:00 +16°C° 0 mm 2 mps 743 mmHg 89%
02:00 +16°C° 0 mm 2 mps 743 mmHg 90%
03:00 +15°C° 0 mm 2 mps 743 mmHg 92%
04:00 +15°C° 0 mm 2 mps 743 mmHg 89%
05:00 +16°C° 0 mm 2 mps 743 mmHg 86%
06:00 +16°C° 0 mm 2 mps 743 mmHg 82%
07:00 +18°C° 0 mm 3 mps 743 mmHg 75%
08:00 +19°C° 0 mm 3 mps 743 mmHg 68%
09:00 +21°C° 0 mm 4 mps 743 mmHg 61%
10:00 +22°C° 0 mm 4 mps 743 mmHg 59%
11:00 +25°C° 0 mm 4 mps 743 mmHg 58%
12:00 +26°C° 0 mm 4 mps 743 mmHg 56%
13:00 +26°C° 0 mm 4 mps 742 mmHg 56%
14:00 +27°C° 0 mm 4 mps 742 mmHg 56%
15:00 +27°C° 0 mm 3 mps 741 mmHg 56%
16:00 +27°C° 0 mm 3 mps 741 mmHg 60%
17:00 +26°C° 0 mm 3 mps 741 mmHg 65%
18:00 +26°C° 0 mm 3 mps 740 mmHg 69%
19:00 +24°C° 0 mm 3 mps 740 mmHg 75%
20:00 +21°C° 0 mm 3 mps 740 mmHg 80%
21:00 +20°C° 0 mm 3 mps 740 mmHg 85%
22:00 +19°C° 0 mm 3 mps 740 mmHg 85%
23:00 +19°C° 0 mm 3 mps 740 mmHg 85%

Day after tomorrow, 17 June, Thursday

Time Temperature Precipitation Wind Pressure Humidity
00:00 +19°C° 0 mm 3 mps 740 mmHg 85%
01:00 +19°C° 0.1 mm 3 mps 740 mmHg 86%
02:00 +18°C° 0.1 mm 3 mps 739 mmHg 87%
03:00 +18°C° 0.1 mm 3 mps 739 mmHg 88%
04:00 +18°C° 0.5 mm 4 mps 739 mmHg 88%
05:00 +19°C° 0.5 mm 4 mps 739 mmHg 88%
06:00 +19°C° 0.5 mm 5 mps 739 mmHg 89%
07:00 +20°C° 0.3 mm 5 mps 739 mmHg 86%
08:00 +22°C° 0.3 mm 5 mps 739 mmHg 82%
09:00 +23°C° 0.3 mm 6 mps 738 mmHg 79%
10:00 +26°C° 0.1 mm 6 mps 738 mmHg 75%
11:00 +28°C° 0.1 mm 6 mps 738 mmHg 72%
12:00 +29°C° 0.1 mm 7 mps 737 mmHg 68%
13:00 +30°C° 0 mm 6 mps 737 mmHg 67%
14:00 +30°C° 0 mm 6 mps 736 mmHg 65%
15:00 +32°C° 0 mm 6 mps 736 mmHg 64%
16:00 +30°C° 0.1 mm 6 mps 736 mmHg 69%
17:00 +29°C° 0.1 mm 6 mps 735 mmHg 73%
18:00 +28°C° 0.1 mm 5 mps 735 mmHg 78%
19:00 +28°C° 0 mm 6 mps 734 mmHg 80%
20:00 +27°C° 0 mm 6 mps 734 mmHg 83%
21:00 +26°C° 0 mm 7 mps 734 mmHg 85%
22:00 +24°C° 1.2 mm 6 mps 734 mmHg 87%
23:00 +25°C° 1.2 mm 5 mps 733 mmHg 90%

18 June, Friday

Time Temperature Precipitation Wind Pressure Humidity
00:00 +23°C° 1.2 mm 5 mps 733 mmHg 92%
01:00 +23°C° 1.4 mm 5 mps 733 mmHg 94%
02:00 +23°C° 1.4 mm 5 mps 733 mmHg 95%
03:00 +23°C° 1.4 mm 4 mps 733 mmHg 97%
04:00 +23°C° 0.2 mm 4 mps 733 mmHg 97%
05:00 +25°C° 0.2 mm 4 mps 734 mmHg 96%
06:00 +25°C° 0.2 mm 3 mps 734 mmHg 96%
07:00 +26°C° 0 mm 3 mps 734 mmHg 88%
08:00 +28°C° 0 mm 3 mps 735 mmHg 80%
09:00 +29°C° 0 mm 3 mps 735 mmHg 72%
10:00 +30°C° 0 mm 4 mps 735 mmHg 67%
11:00 +32°C° 0 mm 4 mps 735 mmHg 63%
12:00 +33°C° 0 mm 5 mps 735 mmHg 58%
13:00 +30°C° 0.1 mm 4 mps 735 mmHg 60%
14:00 +29°C° 0.1 mm 4 mps 735 mmHg 63%
15:00 +28°C° 0.1 mm 3 mps 735 mmHg 65%
16:00 +28°C° 0.1 mm 3 mps 735 mmHg 65%
17:00 +27°C° 0.1 mm 2 mps 736 mmHg 66%
18:00 +27°C° 0.1 mm 2 mps 736 mmHg 66%
19:00 +26°C° 0 mm 2 mps 736 mmHg 68%
20:00 +24°C° 0 mm 2 mps 736 mmHg 69%
21:00 +21°C° 0 mm 2 mps 736 mmHg 70%
22:00 +21°C° 0 mm 3 mps 736 mmHg 73%
23:00 +20°C° 0 mm 3 mps 736 mmHg 75%

19 June, Saturday

Time Temperature Precipitation Wind Pressure Humidity
00:00 +19°C° 0 mm 3 mps 736 mmHg 78%
01:00 +18°C° 0 mm 3 mps 736 mmHg 77%
02:00 +17°C° 0 mm 3 mps 736 mmHg 76%
03:00 +16°C° 0 mm 3 mps 737 mmHg 75%
04:00 +16°C° 0 mm 3 mps 737 mmHg 76%
05:00 +16°C° 0 mm 3 mps 737 mmHg 77%
06:00 +15°C° 0 mm 2 mps 738 mmHg 79%
07:00 +16°C° 0 mm 3 mps 738 mmHg 73%
08:00 +18°C° 0 mm 4 mps 738 mmHg 68%
09:00 +19°C° 0 mm 4 mps 738 mmHg 63%
10:00 +20°C° 0 mm 4 mps 738 mmHg 60%
11:00 +21°C° 0 mm 4 mps 738 mmHg 58%
12:00 +22°C° 0 mm 4 mps 738 mmHg 55%
13:00 +22°C° 0 mm 4 mps 738 mmHg 54%
14:00 +23°C° 0 mm 4 mps 738 mmHg 54%
15:00 +23°C° 0 mm 4 mps 738 mmHg 53%
16:00 +24°C° 0 mm 3 mps 738 mmHg 57%
17:00 +24°C° 0 mm 2 mps 738 mmHg 61%
18:00 +23°C° 0 mm 2 mps 737 mmHg 65%
19:00 +20°C° 0 mm 2 mps 738 mmHg 69%
20:00 +19°C° 0 mm 2 mps 738 mmHg 72%
21:00 +17°C° 0 mm 2 mps 738 mmHg 76%
22:00 +16°C° 0 mm 1 mps 738 mmHg 78%
23:00 +16°C° 0 mm 1 mps 738 mmHg 80%

20 June, Sunday

Time Temperature Precipitation Wind Pressure Humidity
00:00 +15°C° 0 mm 1 mps 738 mmHg 82%
01:00 +15°C° 0 mm 1 mps 738 mmHg 83%
02:00 +15°C° 0 mm 1 mps 737 mmHg 84%
03:00 +14°C° 0 mm 1 mps 737 mmHg 85%
04:00 +15°C° 0 mm 2 mps 737 mmHg 85%
05:00 +15°C° 0 mm 2 mps 737 mmHg 85%
06:00 +16°C° 0 mm 2 mps 737 mmHg 85%
07:00 +17°C° 0 mm 3 mps 737 mmHg 79%
08:00 +19°C° 0 mm 3 mps 737 mmHg 74%
09:00 +21°C° 0 mm 4 mps 737 mmHg 68%
10:00 +22°C° 0 mm 4 mps 736 mmHg 66%
11:00 +23°C° 0 mm 5 mps 736 mmHg 63%
12:00 +25°C° 0 mm 5 mps 735 mmHg 61%
13:00 +26°C° 0 mm 5 mps 735 mmHg 60%
14:00 +26°C° 0 mm 6 mps 734 mmHg 60%
15:00 +27°C° 0 mm 6 mps 733 mmHg 60%
16:00 +26°C° 0 mm 6 mps 732 mmHg 66%
17:00 +24°C° 0 mm 7 mps 732 mmHg 72%
18:00 +24°C° 0 mm 7 mps 731 mmHg 78%
19:00 +23°C° 0.8 mm 6 mps 730 mmHg 84%
20:00 +21°C° 0.8 mm 6 mps 730 mmHg 90%
21:00 +20°C° 0.8 mm 6 mps 729 mmHg 95%
22:00 +20°C° 7.4 mm 5 mps 728 mmHg 95%
23:00 +20°C° 7.4 mm 5 mps 728 mmHg 95%
Show more

We Need Your Consent

Meteoprog and our Service Providers may store and access personal data such as cookies, device identifiers or other similar technologies on your device and process such data to personalise content and ads, as well as provide social media features and to analyse the traffic.

  • Store and/or access information on your device

    Cookies, device identifiers or other information can be stored or accessed on your device for the purposes indicated above.

  • Personalised ads and content, ad and content measurement, audience insights, and products development

    Ads and content can be personalised based on a profile. More data can be added to better personalise ads and content. Ad and content performance can be measured. Insights about the audience who saw the ads and content can be derived. Such data can be used to develop or improve user’s experience, systems and software.

By clicking ‘I Agree’ you will allow the use of indicated cookies, device identifiers, web beacons or other similar technologies. Your settings can be changed in the browser on your device.

For certain purposes, legitimate interests may be relied on, rather than consent. You can read more about this in our Privacy and Cookie Policy.